User: anonymous   Login
Location: Unspecified
(0.0000°N, 0.0000°E)
Time: 21:56:34
(UTC+00:00)
Language:

Diademe D-1C - Orbit

View from above orbital plane
View from above orbital plane
View from above satellite
View from above satellite

Ground track
Ground track

The orbit data is extracted from the following two-line orbital elements,

1  2674U 67011A   17082.60954127 +.00000346 +00000-0 +68170-4 0  9995
2  2674 039.9253 281.6604 0269594 218.3088 139.8258 14.54285498597427
Epoch (UTC): 23 March 2017 14:37:44
Eccentricity: 0.0269594
inclination: 39.9253°
perigee height: 520 km
apogee height: 903 km
right ascension of ascending node: 281.6604°
argument of perigee: 218.3088°
revolutions per day: 14.54285498
mean anomaly at epoch: 139.8258°
orbit number at epoch: 59742

The dashed part of the orbit path shows where the satellite is in the earth's shadow,  

DLR